Location: Delia
(51.6321°N, 112.3740°W)
Time: 13:21:02
(UTC+00:00)

N. Korean satellite - Visible Passes

Search period start: 02 December 2021 00:00
Search period end: 12 December 2021 00:00
Orbit: 447 x 495 km, 97.3° (Epoch: 01 December)

Date Brightness Start Highest point End Pass type
(mag) Time Alt. Az. Time Alt. Az. Time Alt. Az.
02 Dec 9.5 00:45:36 10° SW 00:48:15 20° W 00:50:54 10° NW visible
02 Dec 9.0 12:04:35 10° NE 12:07:14 21° E 12:09:51 10° SE visible
02 Dec 7.1 13:37:26 10° N 13:40:31 32° WNW 13:43:33 10° SW visible
03 Dec 8.2 00:16:16 10° SSW 00:19:36 39° W 00:22:55 10° NNW visible
03 Dec 10.0 11:37:47 10° ENE 11:38:27 10° E 11:39:07 10° E visible
03 Dec 6.2 13:08:42 10° N 13:12:06 68° WNW 13:15:27 10° SSW visible
04 Dec 7.1 12:40:13 10° NNE 12:43:34 53° E 12:46:53 10° S visible
04 Dec 8.1 14:14:28 10° NNW 14:16:23 15° WNW 14:18:19 10° W visible
05 Dec 9.7 00:53:41 10° SW 00:55:59 16° W 00:58:16 10° NW visible
05 Dec 8.7 12:12:02 10° NE 12:14:54 25° E 12:17:45 10° SSE visible
05 Dec 7.3 13:45:11 10° N 13:48:05 27° WNW 13:50:59 10° SW visible
06 Dec 8.6 00:24:04 10° SSW 00:27:15 32° W 00:30:25 10° NNW visible
06 Dec 9.7 11:44:33 10° ENE 11:46:08 13° E 11:47:42 10° ESE visible
06 Dec 6.4 13:16:21 10° N 13:19:41 55° WNW 13:22:59 10° SSW visible
07 Dec 6.7 12:47:46 10° NNE 12:51:09 66° ESE 12:54:30 10° S visible
07 Dec 8.3 14:22:25 10° NW 14:23:52 12° WNW 14:25:20 10° W visible
08 Dec 9.8 01:01:48 10° WSW 01:03:37 13° W 01:05:25 10° WNW visible
08 Dec 8.3 12:19:27 10° NNE 12:22:29 30° E 12:25:31 10° SSE visible
08 Dec 7.6 13:52:52 10° NNW 13:55:34 22° WNW 13:58:16 10° WSW visible
09 Dec 8.9 00:31:50 10° SSW 00:34:50 26° W 00:37:47 10° NW visible
09 Dec 9.5 11:51:38 10° NE 11:53:42 15° E 11:55:47 10° SE visible
09 Dec 6.6 13:23:54 10° N 13:27:09 44° WNW 13:30:23 10° SW visible
10 Dec 7.3 00:02:42 10° S 00:06:08 55° W 00:09:32 10° NNW visible
10 Dec 7.4 12:55:12 10° NNE 13:00:14 29° S 13:02:00 10° SSW visible
10 Dec 8.4 14:30:33 10° NW 14:31:15 10° WNW 14:31:25 10° WNW visible
11 Dec 10.0 01:10:06 10° WSW 01:11:09 11° W 01:12:12 10° WNW visible
11 Dec 8.8 12:26:46 10° NNE 12:32:03 18° SSE 12:33:08 10° SSE visible
11 Dec 8.1 14:00:28 10° NNW 14:06:09 - WSW 14:01:53 17° NW visible
